sat.trackr.live / text

‹ back to catalog

KUIPER-00544

NORAD 69613 · 2026-140X

PAYLOAD ACTIVE UNKNOWN

§ Identity

Operator
Country
US
Launch date
2026-06-17
Launch site
FRGUI
Launch vehicle
Mass (kg)
RCS (m²)

External: N2YO · Heavens-Above · Gunter

§ Orbital elements

Epoch: 2026-09-20T04:00:03.000096Z

Period
95.14 min
Inclination
51.8850°
Eccentricity
0.0006645
Mean motion
15.13525066 rev/d
Perigee alt
520.9 km
Apogee alt
530.0 km
Semi-major
6,903.6 km
B*
-1.1276e-1
RAAN
300.2266°
Arg perigee
173.7514°
Mean anomaly
268.2650°
Rev number
426

§ Raw data

KUIPER-005441 69613U 26140X   26263.16670139 -.01859464  00000+0 -11276+0 0  99942 69613  51.8850 300.2266 0006645 173.7514 268.2650 15.13525066  4267

JSON: /api/v1/satellites/69613 · /tle

For live sub-satellite position, see the globe view (requires WebGL).

§ Visibility from observer

Set your observer location to see the next 7 days of passes ≥ 10°. The values pass through the URL so the page stays shareable.

No JS? Fill the form by hand. The geolocation button needs JavaScript.